Regional Weather Roundup
Issued by NWS Burlington, VT

Home | Current Version | Previous Version | Text Only | Print | Product List | Glossary On
Versions: 1 2 3 4 5 6 7 8 9 10 11 12 13 14 15 16 17 18 19 20 21 22 23 24 25 26 27 28 29 30 31 32 33 34 35 36 37 38 39 40 41 42 43 44 45 46 47 48 49 50
000
ASUS41 KBTV 240630
RWRBTV
VERMONT REGIONAL WEATHER ROUNDUP
NATIONAL WEATHER SERVICE BURLINGTON VT
100 AM EST TUE JAN 24 2017

NOTE: "FAIR" INDICATES FEW OR NO CLOUDS BELOW 12,000 FEET WITH NO
SIGNIFICANT WEATHER AND/OR OBSTRUCTIONS TO VISIBILITY.

* THESE REPORTS ARE NOT UNDER NWS QUALITY CONTROL AND/OR DO NOT
  REPORT WEATHER SUCH AS PRECIPITATION AND FOG.

VTZ001>019-240700-
_____VERMONT_____


CITY           SKY/WX    TMP DP  RH WIND       PRES   REMARKS
BURLINGTON     MIX PCPN  32  24  72 SE5       29.86F WCI  27
6HR MIN TEMP:  32; 6HR MAX TEMP:  35; 6HR PCP:  0.02;

MONTPELIER     MIX PCPN  28  21  75 NE5       29.89F WCI  23
6HR MIN TEMP:  28; 6HR MAX TEMP:  30; 6HR PCP:  0.01;

MORRISVILLE    MIX PCPN  29  19  66 CALM      29.89F
6HR MIN TEMP:  29; 6HR MAX TEMP:  31; 6HR PCP: TRACE;

ST. JOHNSBURY*   N/A     31  17  56 MISG      29.87F
6HR MIN TEMP:  30; 6HR MAX TEMP:  31;

LYNDONVILLE*   FAIR      29  18  63 NE13G18   29.87F WCI  19
6HR MIN TEMP:  27; 6HR MAX TEMP:  29;

MIDDLEBURY*    MIX PCPN  31  21  67 N3        29.81F
6HR MIN TEMP:  31; 6HR MAX TEMP:  33; 6HR PCP:  0.05;

RUTLAND*       LGT SNOW  28  25  86 SE12G20   29.75F FOG     WCI  18
6HR MIN TEMP:  29; 6HR MAX TEMP:  30; 6HR PCP:  0.02;

SPRINGFIELD    LGT SNOW  29  24  82 N6        29.82F WCI  23
6HR MIN TEMP:  29; 6HR MAX TEMP:  30; 6HR PCP:  0.10;

HIGHGATE*      CLOUDY    32  19  58 CALM      29.89F
6HR MIN TEMP:  30; 6HR MAX TEMP:  32;

NEWPORT*       FAIR      29  18  64 E13G18    29.89F WCI  18
6HR MIN TEMP:  27; 6HR MAX TEMP:  28;

BENNINGTON     LGT RAIN  32  24  72 NE9G24    29.65F WCI  24
6HR MIN TEMP:  32; 6HR MAX TEMP:  34; 6HR PCP: TRACE;

SUTTON*          N/A     25 N/A N/A MISG        N/A
ISLAND POND*     N/A     27 N/A N/A E8          N/A  WCI  18
GALLUP MILLS*    N/A     27 N/A N/A MISG        N/A
UNION VILLAGE*   N/A     30 N/A N/A MISG        N/A
MT. MANSFIELD*   N/A     19 N/A N/A S60G74      N/A  WCI  -5

_____LAKE CHAMPLAIN_____


CITY           SKY/WX    TMP DP  RH WIND       PRES   REMARKS
BURTON ISLAND*   N/A     32  25  74 E8          N/A  WCI  25
COLCHESTER RF*   N/A     34  27  75 E9          N/A  WCI  26

$$

NYZ007-026>031-035-052-083-087-240700-
_____NORTHERN NEW YORK_____


CITY           SKY/WX    TMP DP  RH WIND       PRES   REMARKS
PLATTSBURGH    CLOUDY    32  22  66 NE3       29.88F
6HR MIN TEMP:  30; 6HR MAX TEMP:  34;

SARANAC LAKE   FRZ RAIN  28  23  81 NE10      29.73F WCI  19
6HR MIN TEMP:  28; 6HR MAX TEMP:  28; 6HR PCP:  0.02;

MASSENA        MIX PCPN  29  22  75 NE17G24   29.87F WCI  17
6HR MIN TEMP:  28; 6HR MAX TEMP:  31; 6HR PCP: TRACE;

OGDENSBURG*    MIX PCPN  30  27  86 E13       29.81F WCI  20
6HR MIN TEMP:  30; 6HR MAX TEMP:  32;

POTSDAM*       MIX PCPN  28  28 100 NE12G17   29.80F WCI  18
STARK FALLS*     N/A     30 N/A N/A E3          N/A
WATERTOWN      FRZ RAIN  31  29  92 NE12      29.74F FOG     WCI  22
6HR MIN TEMP:  31; 6HR MAX TEMP:  32; 6HR PCP:  0.03;

FT DRUM        FRZ DRZL  28  27  93 NE10      29.71F WCI  19
6HR MIN TEMP:  29; 6HR MAX TEMP:  32; 6HR PCP: TRACE;

ALBANY         LGTSLEET  33  29  85 N14       29.66F FOG     WCI  23
6HR MIN TEMP:  32; 6HR MAX TEMP:  35; 6HR PCP:  0.48;

GLENS FALLS    FRZ RAIN  33  26  75 N16       29.75F WCI  23
6HR MIN TEMP:  33; 6HR MAX TEMP:  34; 6HR PCP:  0.11;


$$
NHZ002-005-011-240700-
_____NEW HAMPSHIRE_____


CITY           SKY/WX    TMP DP  RH WIND       PRES   REMARKS
LEBANON        LGT SNOW  30  28  92 VRB3      29.82F VSB 1
6HR MIN TEMP:  31; 6HR MAX TEMP:  31; 6HR PCP:  0.06;

KEENE          LGT SNOW  30  25  81 N15G26    29.74F WCI  19
6HR MIN TEMP:  30; 6HR MAX TEMP:  32; 6HR PCP:  0.13;

MT WASHINGTON  FLURRIES  14  -2  48 E60G69      N/A  WCI -13
6HR MIN TEMP:  11; 6HR MAX TEMP:  17; 6HR PCP: TRACE;

PLYMOUTH       LGT SNOW  32  24  73 E16G24    29.88F WCI  21
6HR MIN TEMP:  30; 6HR MAX TEMP:  32;

WHITEFIELD     CLOUDY    31  17  56 E12       29.87F WCI  22
6HR MIN TEMP:  27; 6HR MAX TEMP:  31;


$$

_____REGIONAL QUEBEC LOCATIONS_____


CITY           SKY/WX    TMP DP  RH WIND       PRES   REMARKS
MONTREAL       CLOUDY    25  18  74 NE17      29.93F WCI  11
QUEBEC CITY    MOCLDY    25  16  68 NE15G23   30.07F WCI  12
SHERBROOKE     MOCLDY    27  12  54 N5        29.94S WCI  21

_____REGIONAL ONTARIO LOCATIONS_____


CITY           SKY/WX    TMP DP  RH WIND       PRES   REMARKS
OTTAWA         CLOUDY    27  19  74 E15G23    29.87F WCI  15

______KEY______
VSB  - VISIBILITY IN MILES
WCI  - WIND CHILL INDEX
HX   - HEAT INDEX
$$
NNNN



USA.gov is the U.S. government's official web portal to all federal, state and local government web resources and services.